Location: Unspecified
(0.0000°N, 1.0000°E)
Time: 00:05:12
(UTC+01:00)

X-37B - Pass Details

Date: 26 September 2020
Orbit: 382 x 392 km, 45.0° (Epoch: 15 October)

Event Time Altitude Azimuth Distance (km) Brightness Sun altitude
Rises 20:24:14 0° 222° (SW) 2,266 5.2 -9.3°
Reaches altitude 10° 20:26:18 10° 221° (SW) 1,408 4.1 -9.8°
Maximum altitude 20:29:29 86° 130° (SE) 388 0.5 -10.6°
Enters shadow 20:32:35 10° 43° (NE) 1,379 3.0 -11.4°
